CAPE
0 0 0 0 0 0 0 0 0 0 0 0 0 0 0 0 0 0 0 0 0 0 0 0 0 0 1 0 0 1 1 0
0 0 0 0 0 0 0 0 0 0 0 0 0 0 0 0 0 0 0 0 0 0 0 0 0 1 0 1 2 1 1 0
0 0 0 0 0 0 0 0 0 0 0 0 0 0 0 0 0 0 0 0 0 0 0 0 0 1 1 1 1 2 2 1
0 0 0 0 0 0 0 0 0 0 0 0 0 0 0 0 0 0 0 0 0 0 0 0 0 0 1 1 2 1 2 1
0 0 0 0 0 0 0 0 0 0 0 0 0 0 0 0 0 0 0 0 0 0 0 1 0 0 1 1 0 1 1 3
0 0 0 0 0 0 0 0 0 0 0 0 0 0 0 0 0 0 0 0 0 0 0 1 0 1 1 2 2 1 1 2
0 0 0 0 0 0 0 0 0 0 0 0 0 0 0 0 0 0 0 0 0 0 0 0 0 1 0 0 0 1 1 1
0 0 0 0 0 0 0 0 0 0 0 0 0 0 0 0 0 0 0 0 0 0 0 0 0 0 0 0 0 1 0 1
0 0 0 0 0 0 0 0 0 0 0 0 0 0 0 0 0 0 0 0 0 0 0 0 0 0 0 1 0 0 0 0
0 0 0 0 0 0 0 0 0 0 0 0 0 0 0 0 0 0 0 0 0 0 0 0 0 0 0 0 0 0 0 1
0 0 0 0 0 0 0 0 0 0 0 0 0 0 0 0 0 0 0 0 0 0 0 0 0 0 0 0 0 0 0 1
0 0 0 0 0 0 0 0 0 0 0 0 0 0 0 0 0 0 0 0 0 0 0 0 0 0 0 0 0 0 0 0
0 0 0 0 0 0 0 0 0 0 0 0 0 0 0 0 0 0 0 0 0 0 0 0 0 0 0 0 0 0 0 0
0 0 0 0 0 0 0 0 0 0 0 0 0 0 0 0 0 0 0 0 0 0 0 0 0 0 0 0 0 0 0 0
0 0 0 0 0 0 0 0 0 0 0 0 0 0 0 0 0 0 0 0 0 0 0 0 0 0 0 0 0 0 0 0
0 0 0 0 0 0 0 0 0 0 0 0 0 0 0 0 0 0 0 0 0 0 0 0 0 0 0 0 0 0 0 0
0 0 0 0 0 0 0 0 0 0 0 0 0 0 0 0 0 0 0 0 0 0 0 0 0 0 0 0 0 0 0 0
0 0 0 0 0 0 0 0 0 0 0 0 0 0 0 0 0 0 0 0 0 0 0 0 0 0 0 0 0 0 0 0
0 0 0 0 0 0 0 0 0 0 0 0 0 0 0 0 0 0 0 0 0 0 0 0 0 0 0 0 0 0 0 0
CIN
-0 -0 -0 -0 -0 -0 -0 -0 -0 -0 -0 -0 -0 -0 -0 -0 -0 -0 -0 -0 -0 -0 -0 -0 -0 -0 -0 -0 -0 -0 -0 -0
-0 -0 -0 -0 -0 -0 -0 -0 -0 -0 -0 -0 -0 -0 -0 -0 -0 -0 -0 -0 -0 -0 -0 -0 -0 -0 -0 -0 -0 -0 -0 -0
-0 -0 -0 -0 -0 -0 -0 -0 -0 -0 -0 -0 -0 -0 -0 -0 -0 -0 -0 -0 -0 -0 -0 -0 -0 -0 -0 -0 -0 -0 -0 -0
-0 -0 -0 -0 -0 -0 -0 -0 -0 -0 -0 -0 -0 -0 -0 -0 -0 -0 -0 -0 -0 -0 -0 -0 -0 -0 -0 -0 -0 -0 -0 -0
-0 -0 -0 -0 -0 -0 -0 -0 -0 -0 -0 -0 -0 -0 -0 -0 -0 -0 -0 -0 -0 -0 -0 -0 -0 -0 -0 -0 -0 -0 -0 -0
-0 -0 -0 -0 -0 -0 -0 -0 -0 -0 -0 -0 -0 -0 -0 -0 -0 -0 -0 -0 -0 -0 -0 -0 -0 -0 -0 -0 -0 -0 -0 -0
-0 -0 -0 -0 -0 -0 -0 -0 -0 -0 -0 -0 -0 -0 -0 -0 -0 -0 -0 -0 -0 -0 -0 -0 -0 -0 -0 -0 -0 -0 -0 -0
-0 -0 -0 -0 -0 -0 -0 -0 -0 -0 -0 -0 -0 -0 -0 -0 -0 -0 -0 -0 -0 -0 -0 -0 -0 -0 -0 -0 -0 -0 -0 -0
-0 -0 -0 -0 -0 -0 -0 -0 -0 -0 -0 -0 -0 -0 -0 -0 -0 -0 -0 -0 -0 -0 -0 -0 -0 -0 -0 -0 -0 -0 -0 -0
-0 -0 -0 -0 -0 -0 -0 -0 -0 -0 -0 -0 -0 -0 -0 -0 -0 -0 -0 -0 -0 -0 -0 -0 -0 -0 -0 -0 -0 -0 -0 -0
-0 -0 -0 -0 -0 -0 -0 -0 -0 -0 -0 -0 -0 -0 -0 -0 -0 -0 -0 -0 -0 -0 -0 -0 -0 -0 -0 -0 -0 -0 -0 -0
-0 -0 -0 -0 -0 -0 -0 -0 -0 -0 -0 -0 -0 -0 -0 -0 -0 -0 -0 -0 -0 -0 -0 -0 -0 -0 -0 -0 -0 -0 -0 -0
-0 -0 -0 -0 -0 -0 -0 -0 -0 -0 -0 -0 -0 -0 -0 -0 -0 -0 -0 -0 -0 -0 -0 -0 -0 -0 -0 -0 -0 -0 -0 -0
-0 -0 -0 -0 -0 -0 -0 -0 -0 -0 -0 -0 -0 -0 -0 -0 -0 -0 -0 -0 -0 -0 -0 -0 -0 -0 -0 -0 -0 -0 -0 -0
-0 -0 -0 -0 -0 -0 -0 -0 -0 -0 -0 -0 -0 -0 -0 -0 -0 -0 -0 -0 -0 -0 -0 -0 -0 -0 -0 -0 -0 -0 -0 -0
-0 -0 -0 -0 -0 -0 -0 -0 -0 -0 -0 -0 -0 -0 -0 -0 -0 -0 -0 -0 -0 -0 -0 -0 -0 -0 -0 -0 -0 -0 -0 -0
-0 -0 -0 -0 -0 -0 -0 -0 -0 -0 -0 -0 -0 -0 -0 -0 -0 -0 -0 -0 -0 -0 -0 -0 -0 -0 -0 -0 -0 -0 -0 -0
-0 -0 -0 -0 -0 -0 -0 -0 -0 -0 -0 -0 -0 -0 -0 -0 -0 -0 -0 -0 -0 -0 -0 -0 -0 -0 -0 -0 -0 -0 -0 -0
-0 -0 -0 -0 -0 -0 -0 -0 -0 -0 -0 -0 -0 -0 -0 -0 -0 -0 -0 -0 -0 -0 -0 -0 -0 -0 -0 -0 -0 -0 -0 -0
Wind_Speed
9 10 12 14 16 18 20 21 22 21 21 22 24 26 27 28 30 31 32 34 36 37 37 39 39 40 40 41 42 42 43 45
9 10 11 14 17 19 21 22 23 22 22 24 25 26 27 29 29 31 32 34 36 36 38 38 39 39 40 40 40 41 42 42
10 9 11 13 15 17 19 21 22 23 23 23 23 23 26 27 29 31 32 34 35 36 38 38 39 39 39 40 40 41 38 39
12 10 10 12 14 16 18 20 21 22 22 22 22 23 26 28 30 31 32 33 34 35 37 38 38 38 39 39 38 38 39 38
12 9 9 11 13 15 18 19 21 21 22 22 23 25 26 27 28 29 30 32 34 35 36 37 38 38 39 37 37 36 37 38
11 10 9 10 12 15 17 20 21 21 21 21 22 24 24 25 26 28 29 30 32 34 34 35 37 37 38 38 37 35 34 34
8 7 8 9 13 16 18 18 20 20 20 21 22 23 24 25 27 28 29 30 31 33 33 34 35 36 37 38 37 35 34 33
3 5 9 11 14 15 16 18 18 18 19 21 22 22 24 25 27 28 28 29 30 32 32 33 33 34 35 36 37 36 35 33
3 7 12 15 13 14 15 16 16 16 18 18 20 22 25 25 25 26 27 28 29 30 31 31 31 32 33 34 36 37 36 35
7 10 9 8 11 13 12 13 13 15 16 16 19 22 24 25 25 25 26 26 27 29 30 30 30 31 32 33 35 36 37 36
9 8 8 11 10 11 12 12 13 14 15 16 18 19 21 23 24 25 25 25 26 27 28 29 30 30 31 33 34 35 36 37
9 9 9 9 9 9 10 12 13 13 14 15 16 17 19 21 24 24 23 24 25 26 27 29 29 30 31 32 33 34 35 36
9 7 7 7 9 10 10 10 11 11 13 14 15 16 17 19 22 23 23 23 24 25 26 27 28 29 30 31 32 33 34 34
9 9 9 8 9 9 9 10 10 10 10 12 14 15 14 17 19 22 22 23 24 25 25 26 28 28 29 30 31 31 32 34
12 11 11 8 7 8 8 8 8 8 9 10 13 15 14 15 15 19 21 22 23 25 25 25 25 27 28 28 30 30 32 33
11 8 8 7 6 7 7 6 6 8 9 10 11 12 14 15 16 18 20 21 22 23 25 26 25 26 27 28 29 30 31 32
7 7 6 5 5 4 3 3 4 5 7 9 10 11 13 15 16 17 19 21 22 23 24 25 26 26 27 28 28 29 30 31
4 5 5 4 3 1 3 4 4 5 6 8 9 11 12 14 16 17 19 20 21 23 24 25 25 26 27 28 28 28 29 30
3 2 2 1 2 4 5 6 6 6 7 8 9 10 11 13 14 16 17 19 20 22 23 24 24 25 26 27 27 28 29 30
Wind_Direction
303 317 328 337 341 344 341 341 342 342 343 344 343 342 340 341 338 338 339 337 335 331 328 325 323 319 317 314 310 308 305 303
300 313 326 334 339 342 342 342 342 342 339 337 338 339 342 342 342 341 340 339 338 337 333 330 328 324 320 317 314 310 308 307
294 311 324 334 340 342 344 346 346 346 345 344 343 344 346 347 346 345 345 344 342 340 338 335 333 330 326 321 317 313 311 311
283 300 318 332 338 342 347 348 350 349 350 349 347 347 345 344 344 344 345 346 346 344 344 342 339 336 332 327 322 318 311 310
280 291 312 326 337 344 345 350 350 352 353 353 352 349 346 350 351 349 347 348 348 348 346 346 346 344 339 334 329 324 318 311
280 294 311 322 334 341 347 347 348 352 354 356 357 356 359 357 355 354 352 351 350 349 349 349 350 350 349 345 340 335 329 319
296 310 319 326 335 337 340 346 347 352 355 359 1 358 357 356 355 354 351 350 349 349 350 351 352 352 352 352 349 344 337 332
300 307 316 322 328 336 343 343 351 360 359 357 2 2 1 355 353 352 354 354 353 351 351 351 353 354 355 357 355 353 346 338
316 310 310 314 335 339 346 348 354 8 5 6 2 358 357 357 357 357 355 358 360 354 354 355 354 356 358 359 360 359 353 349
314 310 318 343 342 340 359 0 6 5 1 360 359 357 356 357 359 359 0 1 2 356 356 356 356 358 359 1 1 0 359 355
318 317 321 331 347 357 2 3 2 1 0 358 356 357 358 357 360 360 3 6 3 360 358 357 358 358 359 2 3 2 1 0
303 311 319 327 345 351 353 352 355 356 0 3 2 2 2 3 3 5 7 9 3 3 3 3 3 4 3 5 6 5 4 2
303 305 316 322 331 335 336 344 349 354 358 2 5 6 8 8 8 9 10 9 7 6 6 6 6 6 5 7 9 7 4 0
290 293 299 309 322 332 337 342 344 351 357 2 6 8 16 14 13 11 12 10 7 5 6 7 8 8 8 7 8 8 7 6
280 287 288 298 310 322 332 344 351 1 3 7 8 13 21 24 29 24 20 18 14 10 8 10 13 10 11 8 7 6 8 8
267 263 273 291 304 318 328 337 357 8 12 20 31 39 40 39 38 35 31 28 24 20 19 17 18 13 12 8 8 7 8 8
268 263 264 270 287 308 333 354 21 37 38 41 50 53 49 42 41 39 35 33 33 28 24 20 17 17 15 14 11 8 9 8
272 236 242 268 277 254 138 111 75 84 71 54 58 51 43 42 43 43 39 37 37 34 33 28 21 19 22 19 14 11 10 9
330 289 249 240 145 122 108 102 93 81 71 70 65 55 50 50 47 42 42 40 37 35 30 23 22 20 19 16 15 15 16 10